Regional Weather Roundup
Issued by NWS

Home | Current Version | Previous Version | Text Only | Print | Product List | Glossary Off
Versions: 1 2 3 4 5 6 7 8 9 10 11 12 13 14 15 16 17 18 19 20 21 22 23 24 25 26 27 28 29 30 31 32 33 34 35 36 37 38 39 40 41 42 43 44 45 46 47 48 49 50

000
ASUS43 KDMX 030604
RWRIA

WEATHER ROUNDUP FOR IOWA
NATIONAL WEATHER SERVICE DES MOINES IA
  ISSUED BY NWS QUAD CITIES IA IL
1200 AM CST TUE MAR 03 2015

NOTE: "FAIR" INDICATES FEW OR NO CLOUDS BELOW 12,000 FEET WITH NO
SIGNIFICANT WEATHER AND/OR OBSTRUCTIONS TO VISIBILITY.

* - THESE STATIONS ARE NOT NWS STATIONS...THUS NOT UNDER NWS
QUALITY CONTROL.  THEY ALSO DO NOT REPORT WEATHER SUCH
AS PRECIPITATION OR FOG.

IAZ001>003-012>014-020>022-031>034-043>046-030700-
   NORTHWEST IOWA

CITY           SKY/WX    TMP DP  RH WIND       PRES   REMARKS
CARROLL *      CLOUDY    27  21  80 SE13      29.93F WCI  16
CHEROKEE *     FAIR      27  21  80 SE13      29.90F WCI  16
6HR MIN TEMP:  27; 6HR MAX TEMP:  30;

DENNISON *     CLOUDY    28  23  80 SE14G21   29.89F WCI  17
LE MARS *      FAIR      28  21  74 SE12      29.88F WCI  18
ORANGE CITY *  FAIR      28  19  69 SE3       29.87F
SHELDON *      CLOUDY    27  21  80 SE17G23   29.88F WCI  14
SIOUX CITY     MOCLDY    31  20  63 SE12      29.88F WCI  22
6HR MIN TEMP:  31; 6HR MAX TEMP:  35;

SPENCER        CLOUDY    27  19  72 SE12      29.92F WCI  17
6HR MIN TEMP:  26; 6HR MAX TEMP:  28;

STORM LAKE *   MOCLDY    25  19  80 SE15      29.91F WCI  12
$$

IAZ055>058-069>071-079>083-090>094-030700-
   SOUTHWEST IOWA

CITY           SKY/WX    TMP DP  RH WIND       PRES   REMARKS
ATLANTIC *     CLOUDY    30  21  69 S9        29.92F WCI  22
AUDUBON *      CLOUDY    28  21  74 SE8       29.94F WCI  20
CLARINDA *     CLOUDY    32  21  64 S12G18    29.98F WCI  23
COUNCIL BLFS * CLOUDY    30  23  74 S15       29.88F WCI  19
CRESTON *      CLOUDY    30  21  69 SE13G20   29.95F WCI  20
HARLAN *       CLOUDY    30  23  74 SE12G18   29.94F WCI  21
LAMONI         CLOUDY    30  20  66 SE12      29.98F WCI  20
6HR MIN TEMP:  30; 6HR MAX TEMP:  32;

RED OAK *      CLOUDY    32  21  64 S15       29.93F WCI  22
SHENANDOAH *   CLOUDY    32  21  64 SE15      29.94F WCI  22
$$

IAZ047>049-059>061-072>074-084-030700-
   CENTRAL IOWA

CITY           SKY/WX    TMP DP  RH WIND       PRES   REMARKS
AMES           CLOUDY    26  18  71 SE9       30.01F WCI  17
6HR MIN TEMP:  26; 6HR MAX TEMP:  27;

ANKENY *       CLOUDY    28  19  69 SE9       30.02F WCI  20
BOONE *        CLOUDY    27  21  80 SE17      29.97F WCI  14
CHARITON *     CLOUDY    30  21  69 SE12      30.00F WCI  21
DES MOINES     CLOUDY    30  19  63 SE12      30.01F WCI  20
6HR MIN TEMP:  29; 6HR MAX TEMP:  32;

GRINNELL *     CLOUDY    26  20  78 SE10      30.04F WCI  16
6HR MIN TEMP:  25; 6HR MAX TEMP:  26;

KNOXVILLE *    CLOUDY    28  19  69 SE12      30.01F WCI  18
MARSHALLTOWN   FAIR      25  18  74 SE14      30.02F WCI  13
6HR MIN TEMP:  24; 6HR MAX TEMP:  25;

NEWTON *       CLOUDY    27  19  74 SE13      30.02F WCI  16
PELLA *        CLOUDY    28  23  81 SE8       30.05F WCI  20
6HR MIN TEMP:  27; 6HR MAX TEMP:  29;

PERRY *          N/A     28  23  80 SE12      29.98F WCI  18
6HR MIN TEMP:  28; 6HR MAX TEMP:  31;

$$

IAZ004>006-015-016-023>025-035-036-030700-
   NORTH CENTRAL IOWA

CITY           SKY/WX    TMP DP  RH WIND       PRES   REMARKS
ALGONA *       CLOUDY    25  19  80 S15G22    29.97F WCI  12
CLARION *      CLOUDY    25  21  86 SE15      29.98F WCI  12
ESTHERVILLE    CLOUDY    23  18  81 SE14      29.94F WCI  11
6HR MIN TEMP:  23; 6HR MAX TEMP:  24;

FORT DODGE *   FAIR      27  18  69 SE10G17   29.98F WCI  17
6HR MIN TEMP:  25; 6HR MAX TEMP:  27;

MASON CITY     CLOUDY    23  16  74 SE14      30.02F WCI  11
6HR MIN TEMP:  20; 6HR MAX TEMP:  23;

FOREST CITY *  CLOUDY    23  18  80 SE12      29.99F WCI  12
WEBSTER CITY * FAIR      25  21  86 SE14      29.97F WCI  13
IOWA FALLS *   FAIR      25  18  74 SE14      30.02F WCI  13
6HR MIN TEMP:  23; 6HR MAX TEMP:  25;

$$

IAZ007>011-017>019-026>030-037>042-050>054-066-030700-
   NORTHEAST IOWA

CITY           SKY/WX    TMP DP  RH WIND       PRES   REMARKS
CEDAR RAPIDS   FAIR      26  19  74 SE10      30.07F WCI  16
6HR MIN TEMP:  24; 6HR MAX TEMP:  26;

CHARLES CITY * CLOUDY    23  18  80 SE14      30.04F WCI  11
CLINTON *      CLOUDY    25  19  80 SE13      30.19F WCI  13
6HR MIN TEMP:  25; 6HR MAX TEMP:  27;

DECORAH *      CLOUDY    23  16  74 SE9       30.06F WCI  13
DUBUQUE        CLOUDY    24  17  74 SE12      30.12F WCI  13
6HR MIN TEMP:  22; 6HR MAX TEMP:  24;

MONTICELLO *   CLOUDY    25  21  86 SE13      30.11F WCI  13
OELWEIN *      CLOUDY    23  19  86 SE14      30.07F WCI  11
WATERLOO       CLOUDY    24  18  77 SE9       30.06F WCI  14
6HR MIN TEMP:  23; 6HR MAX TEMP:  24;

$$

IAZ064-065-067-068-078-030700-
   EAST CENTRAL IOWA

CITY           SKY/WX    TMP DP  RH WIND       PRES   REMARKS
DAVENPORT      FAIR      26  17  68 SE16      30.14F WCI  14
6HR MIN TEMP:  25; 6HR MAX TEMP:  26;

IOWA CITY      CLOUDY    27  20  75 SE13      30.12F WCI  16
6HR MIN TEMP:  26; 6HR MAX TEMP:  27;

MT. PLEASANT * CLOUDY    28  19  71 SE13      30.10F WCI  17
6HR MIN TEMP:  25; 6HR MAX TEMP:  28;

MUSCATINE *    CLOUDY    28  21  74 SE9G16    30.14F WCI  20
QUAD CITIES    FAIR      26  18  71 SE13      30.14F WCI  15
6HR MIN TEMP:  26; 6HR MAX TEMP:  27;

$$

IAZ062-063-075>077-085>089-095>099-030700-
   SOUTHEAST IOWA

CITY           SKY/WX    TMP DP  RH WIND       PRES   REMARKS
BURLINGTON     CLOUDY    28  20  71 SE12      30.12F WCI  18
6HR MIN TEMP:  27; 6HR MAX TEMP:  28;

FAIRFIELD *    CLOUDY    28  19  69 SE16      30.06F WCI  17
FORT MADISON * CLOUDY    27  21  80 SE10      30.10F WCI  17
KEOKUK *       CLOUDY    28  23  80 SE12      30.10F WCI  18
OSKALOOSA *    CLOUDY    27  21  78 SE14      30.05F WCI  16
6HR MIN TEMP:  25; 6HR MAX TEMP:  29;

CENTERVILLE *  CLOUDY    30  21  69 SE12      30.04F WCI  21
OTTUMWA        CLOUDY    29  19  66 SE13      30.05F WCI  19
6HR MIN TEMP:  25; 6HR MAX TEMP:  29;

WASHINGTON *   CLOUDY    28  25  86 SE16      30.08F WCI  17
$$

ABBREVIATIONS USED IN REMARKS
   TC - TEMPERATURES IN CELSIUS
  WCI - WIND CHILL INDEX
   HX - HEAT INDEX
  VSB - VISIBILITY
$$



USA.gov is the U.S. government's official web portal to all federal, state and local government web resources and services.